Flag for Germany Weather past 2 weeks in Haltern am See, North Rhine-Westphalia, Germany

Now
64 °F

Fog.


Feels Like: 64 °F
Forecast: 56 / 76 °F
Wind: 6 mph from West

Location: Dortmund / Wickede

Current Time: Jul 11, 2014 at 11:19:26 AM

Latest Report: Jul 11, 2014 at 10:50 AM


Visibility: 2 mi

Pressure: 29.95 "Hg

Humidity: 88%

Dew point: 61 °F

Location of Haltern am SeeLocation

Historic Weather in Haltern am See — Graph

°F

Haltern am See temperature yesterday

Maximum temperature yesterday: 79 °F (at 4:20 PM)
Minimum temperature yesterday: 59 °F (at 5:20 AM)
Average temperature yesterday: 69 °F

Past Weeks' High & Low Weather Summary

 TemperatureHumidityPressure
High84 °F (Jul 4, 2:20 PM)100% (Jul 10, 5:20 AM)30.21 "Hg (Jul 10, 5:20 AM)
Low45 °F (Jul 2, 5:20 AM)26% (Jul 4, 1:20 PM)29.65 "Hg (Jul 9, 2:50 PM)
Average64 °F65%29.93 "Hg
* Reported Jun 26 10:20 AM — Jul 11 10:20 AM, Haltern am See, Weather by CustomWeather, © 2014

Note: Actual official high and low records may vary slightly from our data, if they occured in-between our weather recording intervals... More about our weather records

Advertising

Haltern am See weather history for previous 24 hours

 ConditionsComfort  
Time TempWeatherWind HumidityBarometerVisibility
10:20 AM
Jul 11
64 °FFog.5 mph88%29.95 "Hg1 mi
9:50 AM64 °FFog.3 mph88%29.95 "Hg1 mi
9:20 AM64 °FFog.5 mph88%29.95 "Hg2 mi
8:50 AM63 °FFog.3 mph88%29.95 "Hg1 mi
8:20 AM63 °FFog.6 mph88%29.95 "Hg1 mi
7:50 AM63 °FFog.6 mph88%29.92 "Hg1 mi
7:20 AM63 °FFog.7 mph88%29.92 "Hg2 mi
6:50 AM63 °FFog.6 mph94%29.92 "Hg2 mi
6:20 AM61 °FFog.7 mph94%29.92 "Hg2 mi
5:50 AM61 °FFog.5 mph94%29.92 "Hg2 mi
5:20 AM59 °FFog.6 mph94%29.92 "Hg2 mi
10:50 PM
Jul 10
61 °FPassing clouds.5 mph88%29.89 "HgN/A
10:20 PM63 °FThundershowers. Scattered clouds.7 mph83%29.86 "HgN/A
9:50 PM64 °FThundershowers. Broken clouds.6 mph78%29.86 "HgN/A
9:38 PM64 °FThundershowers. Partly sunny.6 mph78%29.86 "HgN/A
9:20 PM70 °FThunderstorms. Partly sunny.14 mph64%29.86 "Hg4 mi
8:50 PM75 °FPassing clouds.8 mph65%29.83 "HgN/A
8:20 PM77 °FSunny.8 mph61%29.83 "Hg10 mi
7:50 PM79 °FSunny.10 mph54%29.83 "Hg10 mi
7:20 PM79 °FPassing clouds.9 mph54%29.83 "HgN/A
6:50 PM79 °FPassing clouds.8 mph58%29.83 "HgN/A
6:20 PM79 °FPassing clouds.9 mph58%29.83 "HgN/A
5:50 PM79 °FPassing clouds.9 mph58%29.83 "HgN/A
5:20 PM77 °FScattered clouds.9 mph57%29.83 "HgN/A
4:50 PM79 °FScattered clouds.8 mph54%29.83 "HgN/A
4:20 PM79 °FScattered clouds.7 mph58%29.83 "HgN/A
3:50 PM77 °FPartly sunny.7 mph57%29.83 "HgN/A
3:20 PM75 °FScattered clouds.5 mph65%29.83 "HgN/A
2:50 PM75 °FScattered clouds.6 mph61%29.83 "HgN/A
2:20 PM73 °FPartly sunny.6 mph65%29.83 "HgN/A
1:50 PM73 °FPartly sunny.5 mph65%29.83 "HgN/A
1:20 PM72 °FPartly sunny.3 mph69%29.83 "Hg6 mi
12:50 PM70 °FPartly sunny.3 mph78%29.83 "Hg6 mi
12:20 PM68 °FOvercast.2 mph78%29.83 "Hg6 mi
11:50 AM66 °FPartly sunny.3 mph83%29.83 "Hg5 mi
11:20 AM66 °FFog.5 mph83%29.83 "Hg3 mi
Weather by CustomWeather, © 2014

See weather overviewHow to use our weather pages